Waarnemingen

Advertentie
Mijn weer
Cap Bear, Frankrijk (7749): temperatuur & dauwpunt: 14.10.2018 04:00:00 - 20.10.2018 04:00:00 (CEST)Cap Bear, Frankrijk (7749): windsnelheid & windstoten: 14.10.2018 04:00:00 - 20.10.2018 04:00:00 (CEST)Cap Bear, Frankrijk (7749): windrichting: 14.10.2018 04:00:00 - 20.10.2018 04:00:00 (CEST)Cap Bear, Frankrijk (7749): luchtdruk: 14.10.2018 04:00:00 - 20.10.2018 04:00:00 (CEST)Cap Bear, Frankrijk (7749): zicht: 14.10.2018 04:00:00 - 20.10.2018 04:00:00 (CEST)Cap Bear, Frankrijk (7749): neerslag: 14.10.2018 04:00:00 - 20.10.2018 04:00:00 (CEST)
Datum & Tijd tt [°C] td [°C] ff [km/u] ff [kn] fx [km/u] fx [kn] dd ppp [hPa] vv [km] rr [mm]
20.10.2018 04:00:00 19,0 14,5 24 13 32 17 NNW 1020,0 - 0,0
20.10.2018 03:00:00 19,5 14,7 25 13 35 19 NW 1020,1 - 0,0
20.10.2018 02:00:00 19,8 14,2 27 14 33 18 NW 1019,6 - 0,0
20.10.2018 01:00:00 18,9 14,6 25 13 29 15 NW 1019,7 - 0,0
20.10.2018 00:00:00 19,6 14,4 26 14 29 16 NW 1019,8 - 0,0
19.10.2018 23:00:00 19,2 14,7 19 11 23 13 NW 1019,4 - 0,0
19.10.2018 22:00:00 18,0 15,8 18 10 26 14 NW 1018,9 - 0,0
19.10.2018 21:00:00 19,1 14,6 25 13 29 16 NW 1018,6 - 0,0
19.10.2018 20:00:00 19,1 14,4 22 12 27 15 NW 1018,4 18 0,0
19.10.2018 19:00:00 18,7 15,6 17 9 22 12 NNW 1017,8 - 0,0
19.10.2018 18:00:00 19,0 15,5 13 7 16 9 N 1017,6 - 0,0
19.10.2018 17:00:00 19,4 15,7 16 8 23 12 N 1017,7 - 0,0
19.10.2018 16:00:00 19,5 15,6 21 11 26 14 N 1017,6 - 0,0
19.10.2018 15:00:00 19,3 15,4 25 13 31 17 N 1017,4 - 0,0
19.10.2018 14:00:00 19,8 14,8 29 15 31 17 N 1017,7 - 0,0
19.10.2018 13:00:00 19,6 14,6 25 14 32 18 NNW 1018,2 - 0,0
19.10.2018 12:00:00 19,6 14,0 28 15 32 17 NNW 1018,1 - 0,0
19.10.2018 11:00:00 18,9 14,0 26 14 33 18 NNW 1017,9 - 0,0
19.10.2018 10:00:00 18,8 14,1 29 16 37 20 NNW 1017,4 - 0,0
19.10.2018 09:00:00 18,4 14,1 29 16 38 20 NNW 1016,9 - 0,0
19.10.2018 08:00:00 18,9 13,7 27 14 35 19 NNW 1016,1 18 0,0
19.10.2018 07:00:00 18,2 14,7 29 16 36 19 NNW 1015,4 - 0,0
19.10.2018 06:00:00 19,0 13,8 27 15 36 20 NNW 1015,4 - 0,0
19.10.2018 05:00:00 19,6 13,3 23 12 32 17 NNW 1015,5 18 0,0
19.10.2018 04:00:00 19,5 13,4 25 14 40 22 NNW 1015,2 - 0,0
19.10.2018 03:00:00 19,5 14,3 27 15 40 22 NNW 1015,0 - 0,0
19.10.2018 02:00:00 19,7 13,6 29 15 46 25 NW 1015,1 - 0,0
19.10.2018 01:00:00 19,1 14,4 30 16 46 25 NW 1015,0 - 0,0
19.10.2018 00:00:00 19,7 13,6 33 18 41 22 NW 1014,7 - 0,0
18.10.2018 23:00:00 19,4 13,6 32 17 41 22 NW 1014,7 - 0,0
18.10.2018 22:00:00 19,0 13,4 32 18 41 22 NW 1014,1 - 0,0
18.10.2018 21:00:00 18,8 13,9 34 19 42 23 WNW 1014,0 - 0,0
18.10.2018 20:00:00 18,6 13,9 33 18 40 21 WNW 1013,7 18 0,0
18.10.2018 19:00:00 18,4 14,1 30 16 40 21 WNW 1013,7 - 0,0
18.10.2018 18:00:00 18,5 14,6 33 18 46 25 WNW 1013,2 - 0,0
18.10.2018 17:00:00 18,5 15,4 26 14 42 23 NW 1013,2 18 0,0
18.10.2018 16:00:00 18,2 15,8 32 17 40 22 NW 1013,2 - 0,0
18.10.2018 15:00:00 17,7 16,0 28 15 37 20 NW 1013,6 - 0,0
18.10.2018 14:00:00 17,0 15,7 29 16 46 25 NW 1013,9 10 0,0
18.10.2018 13:00:00 16,8 15,7 28 15 35 19 NW 1014,2 - 0,0
18.10.2018 12:00:00 16,7 15,7 23 12 39 21 NW 1014,5 - 0,0
18.10.2018 11:00:00 16,5 15,9 24 13 45 24 NW 1014,3 6 0,0
18.10.2018 10:00:00 16,5 16,0 17 9 38 21 NNW 1014,1 - 0,0
18.10.2018 09:00:00 16,0 15,7 21 12 40 22 NW 1013,6 - 0,8
18.10.2018 08:00:00 15,6 15,3 33 18 46 25 NW 1013,2 6 0,6
18.10.2018 07:00:00 16,9 16,7 37 20 59 32 N 1013,1 - 0,4
18.10.2018 06:00:00 15,7 15,5 48 26 75 40 NW 1012,3 - 11,1
18.10.2018 05:00:00 15,8 15,6 33 18 58 31 NW 1012,7 5 9,5
18.10.2018 04:00:00 15,7 15,4 32 17 46 25 NW 1013,2 - 3,5
18.10.2018 03:00:00 16,0 15,5 33 18 41 22 NW 1013,9 - 4,4
18.10.2018 02:00:00 16,8 15,3 32 17 40 22 NW 1014,2 - 0,0
18.10.2018 01:00:00 17,3 15,3 26 14 37 20 NW 1014,6 - 0,0
18.10.2018 00:00:00 17,1 15,3 26 14 39 21 NW 1014,5 - 0,0
17.10.2018 23:00:00 17,9 14,0 23 13 29 16 NW 1014,8 - 0,0
17.10.2018 22:00:00 17,9 14,4 24 13 29 15 NW 1014,8 - 0,0
17.10.2018 21:00:00 17,6 14,7 26 14 32 17 NW 1014,7 - 0,2
17.10.2018 20:00:00 17,7 14,6 24 13 29 16 NW 1014,8 - 0,0
17.10.2018 19:00:00 17,5 14,9 22 12 32 18 NW 1014,5 - 0,0
17.10.2018 18:00:00 17,6 15,0 19 10 31 17 NW 1014,7 - 0,0
17.10.2018 17:00:00 17,3 14,6 24 13 32 18 NW 1014,9 12 0,0
17.10.2018 16:00:00 16,6 15,5 23 12 27 15 WNW 1015,2 - 0,0
17.10.2018 15:00:00 16,4 15,9 19 10 25 13 NW 1015,5 - 0,6
17.10.2018 14:00:00 17,0 16,0 18 10 30 16 N 1016,2 - 1,8
17.10.2018 13:00:00 17,8 15,1 22 12 37 20 NW 1016,7 - 0,0
17.10.2018 12:00:00 17,4 15,0 22 12 36 19 NW 1017,1 - 0,0
17.10.2018 11:00:00 17,1 14,9 25 14 36 19 NW 1017,1 15 0,0
17.10.2018 10:00:00 16,6 15,3 24 13 36 19 NW 1017,2 - 0,0
17.10.2018 09:00:00 16,5 15,2 22 12 34 19 NW 1017,2 - 0,0
17.10.2018 08:00:00 16,5 15,2 24 13 34 18 NW 1017,0 - 0,0
17.10.2018 07:00:00 16,6 15,1 24 13 34 18 NW 1017,1 - 0,0
17.10.2018 06:00:00 16,4 15,3 26 14 33 18 NW 1017,1 - 0,0
17.10.2018 05:00:00 16,5 15,5 24 13 35 19 NW 1017,1 - 0,2
17.10.2018 04:00:00 16,4 15,4 26 14 33 18 WNW 1017,5 - 0,0
17.10.2018 03:00:00 16,6 15,8 25 14 33 18 NW 1017,8 - 3,7
17.10.2018 02:00:00 17,0 15,9 18 10 31 17 NW 1018,2 - 0,0
17.10.2018 01:00:00 17,2 15,7 13 7 36 19 NNW 1018,3 - 0,0
17.10.2018 00:00:00 17,2 15,9 17 9 34 19 NNW 1018,4 - 0,8
16.10.2018 23:00:00 16,5 15,4 24 13 38 21 WNW 1018,5 - 0,6
16.10.2018 22:00:00 16,5 15,5 21 11 31 17 NW 1018,4 - 0,8
16.10.2018 21:00:00 17,3 15,6 11 6 24 13 WNW 1018,4 - 0,0
16.10.2018 20:00:00 16,2 15,1 21 11 32 18 NW 1018,1 - 0,0
16.10.2018 19:00:00 17,6 16,1 13 7 27 15 N 1017,1 - 0,0
16.10.2018 18:00:00 17,1 16,3 11 6 26 14 NNW 1017,1 - 3,0
16.10.2018 17:00:00 17,2 16,2 16 9 23 12 WNW 1016,7 - 3,9
16.10.2018 16:00:00 18,2 17,2 11 6 14 8 NW 1016,5 - 1,4
16.10.2018 15:00:00 18,4 17,1 12 7 21 11 NNW 1016,5 - 0,0
16.10.2018 14:00:00 18,8 16,9 18 10 23 12 NNW 1016,6 12 0,0
16.10.2018 13:00:00 18,3 16,6 18 10 25 14 NW 1016,6 - 0,0
16.10.2018 12:00:00 17,1 16,3 11 6 28 15 NW 1016,4 10 1,4
16.10.2018 11:00:00 16,1 15,3 23 12 36 20 WNW 1016,3 - 0,8
16.10.2018 10:00:00 15,5 14,7 23 12 31 17 WNW 1015,9 - 8,2
16.10.2018 09:00:00 16,3 14,5 19 10 23 13 NW 1015,2 - 0,0
16.10.2018 08:00:00 15,8 14,2 22 12 26 14 WNW 1014,3 20 0,0
16.10.2018 07:00:00 15,9 14,4 20 11 25 14 NW 1013,8 - 0,0
16.10.2018 06:00:00 15,9 14,1 19 10 21 11 NW 1013,3 - 0,0
16.10.2018 05:00:00 16,4 14,2 9 5 17 9 NNW 1012,7 - 0,0
16.10.2018 04:00:00 16,2 14,4 10 6 14 8 NW 1012,7 - 0,0
16.10.2018 03:00:00 16,5 14,3 10 5 11 6 NW 1012,9 - 0,0
16.10.2018 02:00:00 16,6 14,4 4 2 19 10 N 1012,6 - 0,0
16.10.2018 01:00:00 16,2 14,0 16 8 25 13 WNW 1012,3 - 0,0
16.10.2018 00:00:00 15,9 14,3 23 12 29 16 NW 1012,0 - 0,0
15.10.2018 23:00:00 16,0 14,4 25 13 34 19 WNW 1011,4 - 0,0
15.10.2018 22:00:00 16,0 14,9 22 12 31 17 WNW 1011,1 - 0,0
15.10.2018 21:00:00 16,1 15,5 26 14 32 17 WNW 1010,3 - 1,0
15.10.2018 20:00:00 16,8 16,2 21 11 28 15 NW 1009,8 - 1,2
15.10.2018 19:00:00 17,1 16,1 21 12 26 14 NW 1009,3 - 0,2
15.10.2018 18:00:00 17,7 16,0 17 9 20 11 NNO 1009,1 - 1,0
15.10.2018 17:00:00 18,5 15,2 16 9 21 11 N 1008,3 - 0,0
15.10.2018 16:00:00 18,7 15,2 16 9 20 11 N 1007,9 - 0,0
15.10.2018 15:00:00 19,2 15,5 14 7 22 12 NNO 1007,7 - 0,0
15.10.2018 14:00:00 19,1 15,8 19 11 32 18 N 1007,7 18 0,0
15.10.2018 13:00:00 17,6 14,3 27 15 37 20 NW 1007,8 - 0,0
15.10.2018 12:00:00 17,5 13,6 22 12 40 22 NW 1007,5 - 0,0
15.10.2018 11:00:00 16,9 13,8 26 14 45 25 NW 1007,1 12 0,0
15.10.2018 10:00:00 15,5 13,3 36 19 54 29 NW 1005,9 - 0,0
15.10.2018 09:00:00 17,4 17,1 26 14 57 31 Z 1005,6 - 0,0
15.10.2018 08:00:00 18,0 17,8 30 16 70 38 Z 1004,1 10 0,2
15.10.2018 07:00:00 18,0 17,8 45 24 113 61 Z 1003,4 - 12,2
15.10.2018 06:00:00 19,0 18,5 76 41 105 57 ZO 1002,5 - 2,7
15.10.2018 05:00:00 19,0 18,5 79 42 106 57 ZO 1002,6 8 4,0
15.10.2018 04:00:00 19,6 18,3 76 41 93 50 ZO 1003,9 - 0,2
15.10.2018 03:00:00 20,0 17,8 76 41 92 50 ZO 1005,1 - 0,0
15.10.2018 02:00:00 19,8 17,9 75 40 98 53 ZO 1005,4 - 0,2
15.10.2018 01:00:00 19,9 18,2 75 41 93 50 ZO 1005,8 - 0,2
15.10.2018 00:00:00 19,7 18,4 73 39 92 50 ZO 1006,9 - 0,2
14.10.2018 23:00:00 19,9 18,4 69 37 83 45 ZO 1007,6 - 0,0
14.10.2018 22:00:00 19,8 18,5 59 32 69 37 ZO 1008,1 - 0,0
14.10.2018 21:00:00 19,6 18,4 49 27 59 32 ZZO 1009,0 - 0,0
14.10.2018 20:00:00 19,5 18,0 52 28 59 32 ZZO 1009,4 12 0,0
14.10.2018 19:00:00 19,6 18,1 51 28 63 34 ZZO 1009,2 - 0,0
14.10.2018 18:00:00 19,7 18,0 58 31 73 39 ZZO 1008,5 - 0,0
14.10.2018 17:00:00 19,7 18,2 63 34 82 45 ZZO 1008,4 - 0,0
14.10.2018 16:00:00 19,6 18,4 66 36 85 46 ZZO 1008,8 - 0,2
14.10.2018 15:00:00 20,1 18,4 73 39 83 45 ZZO 1009,2 12 0,0
14.10.2018 14:00:00 19,6 18,4 66 36 86 46 ZZO 1009,4 - 0,2
14.10.2018 13:00:00 21,1 18,3 61 33 73 39 ZZO 1010,1 - 0,0
14.10.2018 12:00:00 21,1 18,5 52 28 70 38 ZZO 1010,7 - 0,0
14.10.2018 11:00:00 21,1 17,7 51 27 69 38 Z 1011,2 - 0,0
14.10.2018 10:00:00 20,6 17,4 45 25 58 31 Z 1011,5 - 0,0
14.10.2018 09:00:00 20,1 17,3 43 23 56 30 Z 1011,6 - 0,0
14.10.2018 08:00:00 19,7 17,8 37 20 49 26 Z 1011,6 - 0,0
14.10.2018 07:00:00 19,5 18,2 40 22 52 28 Z 1011,6 - 0,0
14.10.2018 06:00:00 19,1 18,6 48 26 64 34 ZZO 1012,0 - 0,0
14.10.2018 05:00:00 18,8 18,5 42 23 60 32 ZZO 1012,4 20 2,2
14.10.2018 04:00:00 19,3 18,8 52 28 58 31 ZZO 1012,9 - 0,0

tt = temperatuur
td = dauwpunt
ff = windsnelheid
fx = windstoten
dd = windrichting
ppp = luchtdruk
vv = zicht
rr = neerslag

Weerstations in de omgeving